Regional Weather Roundup
Issued by NWS

Home | Current Version | Previous Version | Text Only | Print | Product List | Glossary Off
Versions: 1 2 3 4 5 6 7 8 9 10 11 12 13 14 15 16 17 18 19 20 21 22 23 24 25 26 27 28 29 30 31 32 33 34 35 36 37 38 39 40 41 42 43 44 45 46 47 48 49 50

000
ASUS45 KBOU 031107
RWRCO

WEATHER ROUNDUP FOR COLORADO
NATIONAL WEATHER SERVICE DENVER/BOULDER CO
400 AM MST TUE MAR 03 2015

NOTE: "FAIR" INDICATES FEW OR NO CLOUDS BELOW 12000 FEET WITH NO
SIGNIFICANT WEATHER AND/OR OBSTRUCTIONS TO VISIBILITY.

COZ001>005-013-030-031-031200-
...NORTHWEST COLORADO...

CITY           SKY/WX    TMP DP  RH WIND       PRES   REMARKS
CRAIG          CLOUDY    33  24  69 SW21      29.71R WCI  21
HAYDEN         MOCLDY    30  19  64 W18G28    29.69R WCI  18
MEEKER         CLOUDY    34  22  61 SW15      29.74R WCI  24
MOUNT WERNER   NOT AVBL
STEAMBOAT SPGS CLOUDY    31  20  62 SW14G21   29.69R WCI  21
WALDEN         MOCLDY    23  19  86 SW21G28   29.62F WCI   8
$$

COZ006>008-011-031200-
...WEST CENTRAL VALLEYS...

CITY           SKY/WX    TMP DP  RH WIND       PRES   REMARKS
GRAND JUNCTION CLOUDY    34  27  75 VRB6      29.80S WCI  29
MONTROSE       MOCLDY    34  23  64 E8        29.84S WCI  27
EAGLE          CLOUDY    30  27  86 SW20G32   29.77R WCI  18
RIFLE          CLOUDY    35  26  69 W9        29.78R WCI  28
DELTA          CLOUDY    39  28  65 S5        29.83S
NUCLA          PTCLDY    34  27  75 S15       29.88F WCI  24
$$

COZ017>023-064>068-031200-
...SOUTHWEST COLORADO...

CITY           SKY/WX    TMP DP  RH WIND       PRES   REMARKS
DURANGO        MOCLDY    26  25  96 SW7       29.89S WCI  18
CORTEZ         CLOUDY    33  27  78 SW7       29.90F WCI  27
PAGOSA SPRINGS NOT AVBL
TELLURIDE      CLOUDY    25  13  60 NW6       29.85S WCI  18
WOLF CREEK PAS CLOUDY    10  10 100 SW20G41   29.81R WCI  -8
$$

COZ009-010-012-014-032>034-037-058>063-031200-
...CENTRAL COLORADO...

CITY           SKY/WX    TMP DP  RH WIND       PRES   REMARKS
ASPEN          PTCLDY    22  18  85 S3        29.73S
BUENA VISTA    CLOUDY    29  12  48 W21G29    29.72R WCI  16
COPPER MTN     CLOUDY    14   5  67 W18G30    29.67R WCI  -3
BERTHOUD PASS  NOT AVBL
COTTONWOOD PAS FLURRIES  27  10  50 NW23G36   29.69R WCI  12
GUNNISON       PTCLDY    27  14  59 NW9       29.81S WCI  17
KREMMLING      PTCLDY    30  23  74 W15G23    29.71R WCI  19
LEADVILLE      LGT SNOW  18  12  77 VRB7      29.69R WCI   9
SALIDA         PTCLDY    32  13  46 W14G21    29.82R WCI  22
SUNLIGHT       CLOUDY    19  18  93 CALM        N/A
WILKERSON PASS MOCLDY    12   9  85 SW10G16   29.68R WCI  -1
$$

COZ069>075-031200-
...SAN LUIS VALLEY/SANGRE DE CRISTO MOUNTAINS...

CITY           SKY/WX    TMP DP  RH WIND       PRES   REMARKS
ALAMOSA        PTCLDY    26  17  68 S12       29.80R WCI  16
LA VETA PASS   MOCLDY    19  18  93 SW12      29.72R WCI   7
SAGUACHE       PTCLDY    27  14  59 NW12      29.76S WCI  16
$$

COZ035-036-038>040-031200-
...NORTHERN COLORADO FRONT RANGE...

CITY           SKY/WX    TMP DP  RH WIND       PRES   REMARKS
DENVER INTL AP PTCLDY    34  17  50 W13       29.62R WCI  25
DMNS CITY PARK   N/A     33  16  51 S2        29.64R
AURORA         PTCLDY    34  14  44 NW7       29.64R WCI  27
FRONT RANGE AP NOT AVBL
ERIE MUNI ARPT PTCLDY    39  16  40 W7        29.63R
BOULDER MUN AP PTCLDY    41  18  38 W8        29.63R
CENTENNIAL     PTCLDY    34  13  41 W5        29.64R WCI  30
BROOMFIELD     PTCLDY    37  18  44 W16       29.64R
FORT COLLINS   CLEAR     39  19  45 SW12      29.60R
LONGMONT       CLEAR     41  21  43 W14G21    29.65R
$$

COZ041-046-047-076>085-087-088-031200-
...PIKES PEAK/PALMER DIVIDE AND SOUTHERN FOOTHILLS...

CITY           SKY/WX    TMP DP  RH WIND       PRES   REMARKS
COLO. SPRINGS  PTCLDY    35  11  36 NW10      29.68R WCI  27
A. F. ACADEMY  PTCLDY    34   8  34 W8        29.67R WCI  27
ELLICOTT       NOT AVBL
FALCON         PTCLDY    30  10  42 W10       29.68S WCI  21
FORT CARSON    PTCLDY    36  13  38 W7        29.67S
LIMON          MOCLDY    38  15  39 W21G29    29.60R
MONUMENT HILL  PTCLDY    30  12  47 SW7       29.65S WCI  23
TRINIDAD       PTCLDY    41  21  44 W12       29.71S
$$

COZ042>045-048>051-090-091-031200-
...NORTHEAST COLORADO...

CITY           SKY/WX    TMP DP  RH WIND       PRES   REMARKS
GREELEY ARPT   CLEAR     27  19  74 NE10      29.60R WCI  17
AKRON          FOG       25  25 100 NW12      29.60R VSB 1/4 WCI  14
BURLINGTON     CLOUDY    34  28  79 SW12      29.57F WCI  25
WRAY           CLOUDY   N/A N/A N/A NW12      29.63R HAZE
STERLING       CLOUDY    30  30 100 N8        29.63R FOG     WCI  23
HOLYOKE        NOT AVBL
FORT MORGAN    SNOW      26  26  97 NE12      29.62R VSB 1/2 WCI  16
$$

COZ086-089-092>099-031200-
...SOUTHEAST COLORADO...

CITY           SKY/WX    TMP DP  RH WIND       PRES   REMARKS
PUEBLO         PTCLDY    39  21  48 W26G35    29.64R
LA JUNTA       CLOUDY    46  25  43 W22G36    29.68R
LAMAR          MOCLDY    43  28  55 W14       29.64R
SPRINGFIELD      N/A     40  29  64 W16       29.69R
$$



USA.gov is the U.S. government's official web portal to all federal, state and local government web resources and services.